Albany, NY

12:20 AM EST on December 14, 2019 (GMT -0500)
Albany International

Weather History for KALB - October, 2019

Change the Weather History Date:

Friday, October 11, 2019

  Actual Average Record
Temperature  
Mean Temperature 55 °F 51 °F  
Max Temperature 67 °F 62 °F 86 °F (1949)
Min Temperature 43 °F 41 °F 22 °F (1943)
Degree Days  
Heating Degree Days 10 14  
Month to date heating degree days 105 131  
Since 1 July heating degree days 182 298  
Cooling Degree Days 0 0  
Month to date cooling degree days 4 0  
Year to date cooling degree days 771 594  
Growing Degree Days 4 (Base 50)    
Moisture  
Dew Point 39 °F    
Average Humidity 62    
Maximum Humidity 89    
Minimum Humidity 34    
Precipitation  
Precipitation 0.00 in 0.13 in 1.15 in (1951)
Month to date precipitation 2.11 1.32  
Year to date precipitation 33.32 30.77  
Snow  
Snow 0.00 in 0.00 in T in (1987)
Month to date snowfall 0.0 0.1  
Since 1 July snowfall 0.0 0.1  
Since 1 September snowfall 0.0 0.1  
Snow Depth 0.00 in    
Sea Level Pressure  
Sea Level Pressure 30.21 in    
Wind  
Wind Speed 5 mph (NNE)    
Max Wind Speed 14 mph    
Max Gust Speed 19 mph    
Visibility 10 miles    
Events      
T = Trace of Precipitation, MM = Missing Value Source: NWS Daily Summary

Daily Weather History Graph

Daily Weather History Graph

Search for Another Location

Airport or City:

Astronomy

Oct. 11, 2019 Rise Set
Actual Time 7:03 AM EDT 6:19 PM EDT
Civil Twilight 6:35 AM EDT 6:48 PM EDT
Nautical Twilight 6:02 AM EDT 7:20 PM EDT
Astronomical Twilight 5:29 AM EDT 7:53 PM EDT
Moon 5:52 PM EDT (10/11) 4:36 AM EDT (10/11)
Length of Visible Light 12h 12m
Length of Day
11h 16m
Waxing Gibbous, 96% of the Moon is Illuminated
Oct 11
Waxing Gibbous
Oct 13
Full
Oct 21
Last Quarter
Oct 27
New
Nov 4
First Quarter

Hourly Weather History & Observations

Time (EDT) Temp. Windchill Dew Point Humidity Pressure Visibility Wind Dir Wind Speed Gust Speed Precip Events Conditions
12:51 AM 48.9 °F - 41.0 °F 74% 30.30 in 10.0 mi Calm Calm - N/A   Scattered Clouds
1:51 AM 46.0 °F - 39.9 °F 79% 30.29 in 10.0 mi Calm Calm - N/A   Partly Cloudy
2:51 AM 46.9 °F - 42.1 °F 83% 30.27 in 10.0 mi Calm Calm - N/A   Partly Cloudy
3:51 AM 45.0 °F 41.8 °F 41.0 °F 86% 30.27 in 10.0 mi NNW 5.8 mph - N/A   Clear
4:51 AM 44.1 °F 41.5 °F 39.9 °F 85% 30.27 in 10.0 mi NNE 4.6 mph - N/A   Clear
5:51 AM 44.1 °F - 41.0 °F 89% 30.28 in 10.0 mi Calm Calm - N/A   Clear
6:51 AM 46.0 °F 41.4 °F 39.9 °F 79% 30.27 in 10.0 mi North 9.2 mph - N/A   Partly Cloudy
7:51 AM 46.9 °F - 39.9 °F 77% 30.28 in 10.0 mi North 5.8 mph - N/A   Partly Cloudy
8:51 AM 50.0 °F - 41.0 °F 71% 30.28 in 10.0 mi NNW 8.1 mph - N/A   Partly Cloudy
9:51 AM 55.0 °F - 43.0 °F 64% 30.27 in 10.0 mi North 5.8 mph - N/A   Partly Cloudy
10:51 AM 61.0 °F - 39.9 °F 46% 30.25 in 10.0 mi North 8.1 mph - N/A   Partly Cloudy
11:51 AM 63.0 °F - 37.0 °F 38% 30.22 in 10.0 mi North 9.2 mph - N/A   Mostly Cloudy
12:51 PM 63.0 °F - 37.0 °F 38% 30.20 in 10.0 mi North 6.9 mph - N/A   Mostly Cloudy
1:51 PM 64.9 °F - 37.0 °F 36% 30.19 in 10.0 mi North 9.2 mph - N/A   Mostly Cloudy
2:51 PM 66.0 °F - 37.0 °F 34% 30.17 in 10.0 mi North 6.9 mph - N/A   Overcast
3:51 PM 66.0 °F - 37.9 °F 36% 30.16 in 10.0 mi NE 10.4 mph - N/A   Mostly Cloudy
4:51 PM 64.0 °F - 39.9 °F 41% 30.15 in 10.0 mi NNE 8.1 mph - N/A   Mostly Cloudy
5:51 PM 63.0 °F - 39.9 °F 43% 30.15 in 10.0 mi North 5.8 mph - N/A   Mostly Cloudy
6:51 PM 62.1 °F - 36.0 °F 38% 30.15 in 10.0 mi NE 6.9 mph - N/A   Mostly Cloudy
7:51 PM 60.1 °F - 37.0 °F 42% 30.15 in 10.0 mi ENE 4.6 mph - N/A   Mostly Cloudy
8:51 PM 57.9 °F - 37.9 °F 47% 30.15 in 10.0 mi ENE 5.8 mph - N/A   Mostly Cloudy
9:51 PM 59.0 °F - 35.1 °F 41% 30.13 in 10.0 mi ENE 3.5 mph - N/A   Overcast
10:51 PM 54.0 °F - 37.9 °F 55% 30.12 in 10.0 mi Calm Calm - N/A   Scattered Clouds
11:51 PM 51.1 °F - 39.0 °F 63% 30.10 in 10.0 mi Calm Calm - N/A   Partly Cloudy